Location: Unspecified
(0.0000°N, 0.0000°E)
Time: 18:53:14
(UTC+00:00)

Vanguard 2 Rocket - Pass Details

Date: 26 January 2020
Orbit: 554 x 3327 km, 32.9° (Epoch: 20 February)

Event Time Altitude Azimuth Distance (km) Brightness Sun altitude
Rises 02:03:48 0° 263° (W) 3,515 - -56.8°
Reaches altitude 10° 02:07:43 10° 285° (WNW) 2,200 - -56.0°
Maximum altitude 02:10:31 15° 321° (NW) 1,681 - -55.4°
Drops below altitude 10° 02:12:58 10° 358° (N) 1,872 - -54.9°
Sets 02:15:53 0° 24° (NNE) 2,704 - -54.3°
